Location: Croisilles
(50.1998°N, 2.8793°E)
Time: 03:15:20
(UTC+00:00)

Cosmos 1939 Rocket - Pass Details

Date: 21 January 2021
Orbit: 530 x 585 km, 97.4° (Epoch: 24 February)

Event Time Altitude Azimuth Distance (km) Brightness Sun altitude
Rises 17:37:58 0° 165° (SSE) 2,795 6.5 -11.6°
Reaches altitude 10° 17:40:07 10° 166° (SSE) 1,896 5.6 -12.0°
Maximum altitude 17:44:14 89° 244° (WSW) 585 2.9 -12.6°
Drops below altitude 10° 17:48:21 10° 347° (NNW) 1,887 5.5 -13.2°
Sets 17:50:29 0° 347° (NNW) 2,781 6.4 -13.6°
